Terminal Aerodrome Forecast
Issued by NWS

Home | Current Version | Previous Version | Text Only | Print | Product List | Glossary Off
Versions: 1 2 3 4 5 6 7 8 9 10 11 12 13 14 15 16 17 18 19 20

000
FTUS43 KTOP 212300
TAFMHK
TAF
KMHK 212331Z 2200/2224 36013G20KT P6SM FEW050
     FM220100 35007KT P6SM SKC
     FM221500 10006KT P6SM SKC
     FM222000 13010KT P6SM SKC=

USA.gov is the U.S. government's official web portal to all federal, state and local government web resources and services.